Location: Newark
(7.0858°N, 171.3717°E)
Time: 20:14:31
(UTC+00:00)

Tiros 1 - Pass Details

Date: 04 December 2020
Orbit: 630 x 663 km, 48.4° (Epoch: 18 January)

Event Time Altitude Azimuth Distance (km) Brightness Sun altitude
Rises 23:25:11 0° 234° (SW) 2,958 10.6 57.1°
Reaches altitude 10° 23:27:38 10° 241° (WSW) 2,052 9.9 57.3°
Maximum altitude 23:32:03 39° 310° (NW) 974 8.3 57.8°
Drops below altitude 10° 23:36:31 10° 20° (NNE) 2,064 9.6 58.2°
Sets 23:38:59 0° 28° (NNE) 2,977 10.3 58.4°
